Weather reports worldwide

Advertisment
Socoa, France (7600): temperature & dewpoint: 18.01.2020 02:00:00 - 24.01.2020 02:00:00 (CET)Socoa, France (7600): wind speed & gusts: 18.01.2020 02:00:00 - 24.01.2020 02:00:00 (CET)Socoa, France (7600): wind direction: 18.01.2020 02:00:00 - 24.01.2020 02:00:00 (CET)Socoa, France (7600): reduced air pressure: 18.01.2020 02:00:00 - 24.01.2020 02:00:00 (CET)Socoa, France (7600): visibility: 18.01.2020 02:00:00 - 24.01.2020 02:00:00 (CET)Socoa, France (7600): precipitation: 18.01.2020 02:00:00 - 24.01.2020 02:00:00 (CET)
Date & Time tt [°C] td [°C] ff [km/h] ff [kn] fx [km/h] fx [kn] dd ppp [hPa] vv [km] rr [mm]
24.01.2020 02:00:00 12,1 3,8 44 24 70 38 S 1019,5 - 0,0
24.01.2020 01:00:00 12,0 3,5 41 22 68 37 S 1019,9 18 0,0
24.01.2020 00:00:00 11,9 3,4 37 20 64 35 S 1020,1 - 0,0
23.01.2020 23:00:00 11,8 3,5 32 17 59 32 S 1020,0 - 0,0
23.01.2020 22:00:00 11,0 3,8 13 7 29 16 SSW 1020,0 18 0,0
23.01.2020 21:00:00 11,1 3,9 13 7 35 19 S 1019,9 - 0,0
23.01.2020 20:00:00 11,1 4,3 15 8 37 20 S 1019,8 - 0,0
23.01.2020 19:00:00 11,1 4,8 17 9 42 23 SSE 1019,7 18 0,0
23.01.2020 18:00:00 10,8 5,3 8 4 22 12 S 1019,6 - 0,0
23.01.2020 17:00:00 10,7 6,3 15 8 26 14 SSE 1019,1 - 0,0
23.01.2020 16:00:00 10,9 7,9 8 4 13 7 NE 1018,7 - 0,0
23.01.2020 15:00:00 10,9 7,8 4 2 7 4 ENE 1018,5 - 0,0
23.01.2020 14:00:00 10,4 7,5 0 0 6 4 N 1019,2 - 0,0
23.01.2020 13:00:00 9,4 7,7 4 2 9 5 ESE 1020,1 12 0,0
23.01.2020 12:00:00 8,8 7,4 5 3 10 5 S 1020,8 - 0,0
23.01.2020 11:00:00 8,5 7,1 5 3 18 10 SSE 1020,9 - 0,0
23.01.2020 10:00:00 8,3 6,8 13 7 17 9 SSW 1020,2 - 0,0
23.01.2020 09:00:00 7,8 6,4 10 5 27 14 S 1020,3 - 0,6
23.01.2020 08:00:00 7,1 5,7 14 7 23 13 S 1020,4 - 0,2
23.01.2020 07:00:00 7,1 5,9 16 9 24 13 ESE 1020,4 - 0,0
23.01.2020 06:00:00 6,7 5,5 10 6 20 11 SE 1020,3 - 0,0
23.01.2020 05:00:00 6,1 5,1 4 2 15 8 S 1020,7 - 0,0
23.01.2020 04:00:00 6,1 4,9 12 7 15 8 S 1020,9 - 0,0
23.01.2020 03:00:00 7,0 5,5 7 4 11 6 E 1020,8 - 0,0
23.01.2020 02:00:00 7,5 5,5 8 4 12 6 S 1020,8 - 0,0
23.01.2020 01:00:00 8,0 5,8 6 4 12 7 S 1020,9 18 0,0
23.01.2020 00:00:00 8,2 5,8 10 5 13 7 S 1021,4 - 0,0
22.01.2020 23:00:00 8,2 5,8 10 5 14 8 S 1021,4 - 0,0
22.01.2020 22:00:00 8,1 5,6 7 4 11 6 SSW 1021,3 15 0,0
22.01.2020 21:00:00 8,1 5,7 7 4 10 5 S 1021,7 - 0,0
22.01.2020 20:00:00 8,2 5,5 8 4 11 6 S 1021,9 - 0,0
22.01.2020 19:00:00 9,2 5,6 5 3 8 5 NNW 1022,0 16 0,0
22.01.2020 18:00:00 10,0 5,4 4 2 8 4 WNW 1022,0 - 0,0
22.01.2020 17:00:00 10,8 5,5 3 2 9 5 NNE 1022,5 - 0,0
22.01.2020 16:00:00 11,0 5,7 5 3 14 8 NE 1023,0 18 0,0
22.01.2020 15:00:00 11,9 6,6 7 4 16 9 NNW 1022,9 - 0,0
22.01.2020 14:00:00 10,6 7,5 9 5 14 8 WSW 1023,4 - 0,0
22.01.2020 13:00:00 8,6 5,9 3 2 8 4 W 1024,4 6 0,2
22.01.2020 12:00:00 8,2 5,0 2 1 8 5 WSW 1025,0 - 0,0
22.01.2020 11:00:00 7,7 4,6 8 4 11 6 S 1025,1 - 0,0
22.01.2020 10:00:00 7,4 4,5 8 4 13 7 ESE 1025,1 80 0,0
22.01.2020 09:00:00 7,1 4,1 3 2 10 5 S 1024,7 - 0,0
22.01.2020 08:00:00 7,5 3,9 6 4 16 9 ESE 1024,7 - 0,0
22.01.2020 07:00:00 7,5 4,1 9 5 16 8 ENE 1024,7 - 0,0
22.01.2020 06:00:00 7,3 3,5 7 4 29 15 SE 1024,8 - 0,0
22.01.2020 05:00:00 7,3 4,1 13 7 19 11 E 1025,5 - 0,0
22.01.2020 04:00:00 6,7 3,8 8 4 16 9 ESE 1026,2 - 0,0
22.01.2020 03:00:00 6,4 3,7 7 4 10 5 E 1026,4 - 0,0
22.01.2020 02:00:00 6,2 3,4 4 2 8 4 ESE 1026,5 - 0,0
22.01.2020 01:00:00 6,2 3,0 4 2 7 4 ESE 1027,3 15 0,0
22.01.2020 00:00:00 6,1 3,1 5 3 14 7 S 1027,7 - 0,0
21.01.2020 23:00:00 5,9 2,5 9 5 12 7 SSW 1027,8 - 0,0
21.01.2020 22:00:00 5,7 2,3 9 5 14 8 SSW 1028,1 10 0,0
21.01.2020 21:00:00 5,6 2,2 13 7 15 8 SSW 1028,5 - 0,0
21.01.2020 20:00:00 5,5 2,0 6 3 9 5 SSW 1028,8 - 0,0
21.01.2020 19:00:00 5,5 1,8 9 5 13 7 SW 1029,1 16 0,0
21.01.2020 18:00:00 5,5 1,6 5 3 8 4 SSW 1029,0 - 0,0
21.01.2020 17:00:00 5,4 1,3 5 3 9 5 S 1029,3 - 0,0
21.01.2020 16:00:00 5,2 1,1 6 3 11 6 SSW 1029,7 - 0,0
21.01.2020 15:00:00 4,9 0,7 8 5 13 7 S 1030,0 - 0,0
21.01.2020 14:00:00 4,8 0,4 5 3 14 8 SSE 1030,7 - 0,0
21.01.2020 13:00:00 4,6 0,4 7 4 13 7 E 1031,4 - 0,0
21.01.2020 12:00:00 4,0 -0,2 7 4 19 10 E 1032,3 - 0,0
21.01.2020 11:00:00 3,6 -0,1 11 6 19 11 ESE 1032,4 - 0,0
21.01.2020 10:00:00 3,6 -0,1 16 8 24 13 E 1032,7 8 0,0
21.01.2020 09:00:00 1,9 -0,7 7 4 12 6 ESE 1033,0 - 0,0
21.01.2020 08:00:00 1,4 -1,8 6 4 16 9 ESE 1032,8 - 0,0
21.01.2020 07:00:00 1,6 -1,1 12 6 17 9 ESE 1032,8 - 0,0
21.01.2020 06:00:00 1,6 -1,8 8 4 20 11 ESE 1032,9 - 0,0
21.01.2020 05:00:00 1,2 -2,0 8 5 21 11 ESE 1033,1 - 0,0
21.01.2020 04:00:00 0,3 -2,1 6 4 15 8 SSE 1033,7 - 0,0
21.01.2020 03:00:00 0,4 -2,0 8 4 13 7 SSE 1034,2 - 0,0
21.01.2020 02:00:00 0,6 -2,5 6 3 17 9 SE 1034,5 - 0,0
21.01.2020 01:00:00 1,9 -2,2 9 5 26 14 ESE 1035,3 12 0,0
21.01.2020 00:00:00 3,5 -0,9 11 6 24 13 E 1035,5 - 0,0
20.01.2020 23:00:00 3,7 -1,3 19 10 25 14 ENE 1035,1 - 0,0
20.01.2020 22:00:00 4,2 -1,4 12 6 21 11 E 1035,2 12 0,0
20.01.2020 21:00:00 4,7 -1,5 17 9 31 17 E 1035,4 - 0,0
20.01.2020 20:00:00 5,5 -1,7 17 9 39 21 E 1035,4 - 0,0
20.01.2020 19:00:00 5,4 -0,4 12 7 24 13 ENE 1035,1 - 0,0
20.01.2020 18:00:00 5,0 -0,8 7 4 18 10 S 1034,9 - 0,0
20.01.2020 17:00:00 5,9 -1,1 6 3 13 7 S 1034,8 - 0,0
20.01.2020 16:00:00 5,8 -0,9 9 5 20 11 ENE 1035,0 20 0,0
20.01.2020 15:00:00 5,7 -0,4 10 5 24 13 ENE 1035,3 - 0,0
20.01.2020 14:00:00 5,2 -0,8 11 6 22 12 ENE 1035,7 - 0,0
20.01.2020 13:00:00 4,9 -0,9 14 8 35 19 E 1036,2 20 0,0
20.01.2020 12:00:00 5,0 -1,3 27 14 42 23 E 1036,4 - 0,0
20.01.2020 11:00:00 3,8 -1,2 23 12 38 21 E 1037,2 - 0,0
20.01.2020 10:00:00 2,8 -1,0 17 9 31 17 E 1037,0 17 0,0
20.01.2020 09:00:00 0,6 -1,8 9 5 33 18 E 1036,5 - 0,0
20.01.2020 08:00:00 -0,6 -2,8 10 5 21 11 ESE 1036,4 - 0,0
20.01.2020 07:00:00 0,7 -1,5 10 5 19 10 E 1036,3 - 0,0
20.01.2020 06:00:00 -0,2 -2,4 8 4 16 9 ESE 1036,2 - 0,0
20.01.2020 05:00:00 0,1 -2,1 7 4 14 8 SE 1036,5 - 0,0
20.01.2020 04:00:00 0,6 -2,1 6 3 18 10 ESE 1036,8 - 0,0
20.01.2020 03:00:00 1,3 -1,9 8 4 14 8 SE 1037,3 - 0,0
20.01.2020 02:00:00 3,0 -1,7 8 4 25 14 ESE 1037,7 - 0,0
20.01.2020 01:00:00 3,9 -1,3 17 9 35 19 E 1038,1 - 0,0
20.01.2020 00:00:00 4,6 -1,0 27 15 48 26 ENE 1037,8 - 0,0
19.01.2020 23:00:00 5,4 0,0 32 18 55 30 ENE 1037,4 - 0,0
19.01.2020 22:00:00 5,9 -0,2 34 18 63 34 NE 1037,4 12 0,0
19.01.2020 21:00:00 6,4 -0,1 36 19 74 40 NE 1036,9 - 0,0
19.01.2020 20:00:00 7,4 0,6 53 29 77 42 NE 1036,1 - 0,0
19.01.2020 19:00:00 8,3 1,2 46 25 69 37 NNE 1035,0 - 0,0
19.01.2020 18:00:00 8,7 -0,6 44 24 64 34 NE 1034,2 - 0,0
19.01.2020 17:00:00 9,5 -1,0 35 19 61 33 NE 1033,8 - 0,0
19.01.2020 16:00:00 10,0 -0,5 35 19 52 28 NE 1033,2 20 0,0
19.01.2020 15:00:00 10,1 0,1 27 15 46 25 NNE 1033,3 - 0,0
19.01.2020 14:00:00 9,2 0,9 27 14 39 21 NNE 1033,6 - 0,0
19.01.2020 13:00:00 9,3 1,2 24 13 40 22 NE 1033,7 - 0,0
19.01.2020 12:00:00 8,9 1,5 24 13 40 22 NE 1033,8 - 0,0
19.01.2020 11:00:00 8,4 1,5 17 9 47 26 E 1032,9 - 0,0
19.01.2020 10:00:00 7,4 2,3 26 14 47 26 NE 1031,8 20 0,0
19.01.2020 09:00:00 6,2 2,6 30 16 48 26 NE 1030,4 - 0,0
19.01.2020 08:00:00 6,2 2,8 14 8 36 19 ENE 1029,0 - 0,0
19.01.2020 07:00:00 6,6 3,6 27 14 40 21 ENE 1027,9 - 0,0
19.01.2020 06:00:00 6,6 4,6 16 9 27 15 ENE 1026,9 - 0,0
19.01.2020 05:00:00 6,8 5,1 21 12 39 21 ENE 1025,6 - 0,0
19.01.2020 04:00:00 7,4 5,9 28 15 39 21 ENE 1024,7 - 1,0
19.01.2020 03:00:00 8,6 7,2 26 14 34 19 ENE 1023,6 - 1,2
19.01.2020 02:00:00 8,5 7,0 17 9 28 15 SE 1022,9 - 1,0
19.01.2020 01:00:00 8,6 6,6 19 11 29 16 SW 1022,2 12 0,6
19.01.2020 00:00:00 8,7 6,1 18 10 43 23 SW 1021,7 - 0,4
18.01.2020 23:00:00 8,9 5,8 29 16 48 26 SW 1021,1 - 0,4
18.01.2020 22:00:00 9,4 5,6 33 18 55 30 SW 1020,9 - 0,0
18.01.2020 21:00:00 9,1 6,9 35 19 54 29 SW 1020,8 - 0,4
18.01.2020 20:00:00 9,9 7,7 28 15 72 39 SW 1021,0 - 0,8
18.01.2020 19:00:00 13,4 4,8 18 10 35 19 SSW 1019,5 20 0,0
18.01.2020 18:00:00 13,6 4,5 16 9 39 21 S 1018,1 - 0,0
18.01.2020 17:00:00 15,1 4,2 25 13 46 25 S 1017,9 - 0,0
18.01.2020 16:00:00 15,4 3,5 20 11 45 25 SSE 1018,2 20 0,0
18.01.2020 15:00:00 15,1 3,2 18 10 58 32 SE 1018,5 - 0,0
18.01.2020 14:00:00 15,3 2,1 34 18 55 30 S 1020,1 - 0,0
18.01.2020 13:00:00 14,6 2,1 19 10 54 29 S 1022,4 - 0,0
18.01.2020 12:00:00 13,8 2,1 20 11 50 27 SE 1024,5 - 0,0
18.01.2020 11:00:00 11,7 2,2 23 12 43 23 S 1025,5 - 0,0
18.01.2020 10:00:00 9,6 2,0 17 9 43 23 SSE 1026,1 18 0,0
18.01.2020 09:00:00 9,5 2,3 21 12 37 20 S 1026,9 - 0,0
18.01.2020 08:00:00 8,1 2,7 14 7 30 16 SSE 1027,8 - 0,0
18.01.2020 07:00:00 8,6 3,0 22 12 34 18 S 1028,6 15 0,0
18.01.2020 06:00:00 8,2 3,4 14 8 33 18 S 1029,5 - 0,0
18.01.2020 05:00:00 7,8 3,8 17 9 25 14 S 1029,9 - 0,0
18.01.2020 04:00:00 7,9 4,1 14 7 23 12 S 1030,4 18 0,0
18.01.2020 03:00:00 7,6 4,2 18 10 23 12 S 1031,5 - 0,0
18.01.2020 02:00:00 6,8 4,1 16 9 21 12 S 1031,9 - 0,0

tt = temperature
td = dewpoint
ff = wind speed
fx = gusts
dd = wind direction
ppp = reduced air pressure
vv = visibility
rr = precipitation

Next stations